Skip Page Navigation
NASA JPL Caltech
NASA Logo - Jet Propulsion Laboratory + View the NASA Portal
+ Center for Near-Earth Object Studies
JPL Home Earth Solar System Stars & Galaxies Technology
JPL Solar System Dynamics
BODIES ORBITS EPHEMERIDES TOOLS PHYSICAL DATA DISCOVERY FAQ SITE MAP
JPL Small-Body Database Browser
Search: [ help ]  
11325 Slavicky (1995 SG)
Classification: Main-belt Asteroid          SPK-ID: 2011325
Ephemeris | Orbit Diagram | Orbital Elements | Mission Design | Physical Parameters | Discovery Circumstances ]

[ hide orbit diagram ]

For accurate long-term ephemerides, please instead use our Horizons system.This orbit viewer was implemented using two-body methods, and hence should not be used for determining accurate long-term trajectories (over several years or decades) or planetary encounter circumstances.


Orbital Elements at Epoch 2459396.5 (2021-Jul-01.0) TDB
Reference: JPL 31 (heliocentric ecliptic J2000)
 Element Value Uncertainty (1-sigma)   Units 
e .1350137328026466 2.3568e-08  
a 2.541609141192271 7.6802e-09 au
q 2.198457003714574 5.9556e-08 au
i 1.354954314585135 2.8436e-06 deg
node 236.0768807405794 0.00019251 deg
peri 167.5677495635388 0.00019336 deg
M 97.59570284940369 1.8728e-05 deg
tp 2458995.273353552082
(2020-May-25.77335355)
7.6852e-05 TDB
period 1479.999513340592
4.05
6.7084e-06
1.837e-08
d
yr
n .2432433232274674 1.1025e-09 deg/d
Q 2.884761278669969 8.7171e-09 au
  Orbit Determination Parameters
   # obs. used (total)      1464  
   data-arc span      10770 days (29.49 yr)  
   first obs. used      1991-10-08  
   last obs. used      2021-04-03  
   planetary ephem.      DE441  
   SB-pert. ephem.      SB441-N16  
   condition code      0  
   norm. resid. RMS      .49266  
   source      ORB  
   producer      Otto Matic  
   solution date      2021-Jul-08 16:32:35  

Additional Information
 Earth MOID = 1.20677 au 
 Jupiter MOID = 2.49344 au 
 T_jup = 3.432 
[ show covariance matrix ]

Ephemeris | Orbit Diagram | Orbital Elements | Mission Design | Physical Parameters | Discovery Circumstances ]

Physical Parameter Table
Parameter Symbol Value Units Sigma Reference Notes
absolute magnitude H 15.39   n/a MPCxxxxx  

11325 Slavický           Discovered 1995 Sept. 17 by L. Šarounová at Ondřejov.
Klement Slavický (1910-1999) was an outstanding Czech composer, whose personal musical expression was rooted in the folk-music culture of Moravia. He was also appreciated for his life-long high moral standards. In 1985 Slavický was awarded with the Golden Medal of the United Nations for his fourth Symphonietta.
NOTE: some special characters may not display properly (any characters within {} are an attempt to place the proper accent above a character)
Reference: 19991123/MPCPages.arcLast Updated: 2010-06-11
Ephemeris | Orbit Diagram | Orbital Elements | Mission Design | Physical Parameters | Discovery Circumstances ]
ABOUT SSD CREDITS/AWARDS PRIVACY/COPYRIGHT GLOSSARY LINKS
FirstGov 2021-Jul-29 10:29 UT
(server date/time)  
NASA Home Page
Site Manager:   Ryan S. Park
Webmaster  Alan B. Chamberlin